User: anonymous   Login
Location: Clinton NY
(43.0598°N, 75.3602°W)
Time: 16:02:08
(UTC-04:00)
Language:

Iridium 42 - Orbit

View from above orbital plane
View from above orbital plane
View from above satellite
View from above satellite

Ground track
Ground track

The orbit data is extracted from the following two-line orbital elements,

1 25077U 97077A   14304.39268556  .00000300  00000-0  10013-3 0   146
2 25077 086.3982 063.1746 0002257 110.8057 249.3381 14.34259791884605
Epoch (UTC): 31 October 2014 09:25:28
Eccentricity: 0.0002257
inclination: 86.3982°
perigee height: 776 km
apogee height: 779 km
right ascension of ascending node: 63.1746°
argument of perigee: 110.8057°
revolutions per day: 14.34259791
mean anomaly at epoch: 249.3381°
orbit number at epoch: 88460

The dashed part of the orbit path shows where the satellite is in the earth's shadow,  

DLR